| time (UTC) | temp C | wind direction | speed KPH | gust KPH | rain 1hr cm | rain 24hr cm | rain mn cm | humidity % | barometer mb |
| 20260506091534 | 7 | 231 | 0.0 | 9.7 | 0.00 | 0.00 | 0.00 | 77 | 1005.7 |
| 20260506090030 | 7 | 338 | 3.2 | 24.1 | 0.00 | 0.00 | 0.00 | 74 | 1005.6 |
| 20260506084526 | 6 | 82 | 4.8 | 14.5 | 0.00 | 0.00 | 0.00 | 75 | 1005.8 |
| 20260506083024 | 6 | 154 | 4.8 | 16.1 | 0.00 | 0.00 | 0.00 | 76 | 1005.8 |
| 20260506081622 | 6 | 49 | 6.4 | 19.3 | 0.00 | 0.00 | 0.00 | 78 | 1005.7 |
| 20260506073019 | 5 | 161 | 4.8 | 11.3 | 0.00 | 0.00 | 0.00 | 81 | 1005.9 |
| 20260506071518 | 5 | 212 | 1.6 | 9.7 | 0.00 | 0.00 | 0.00 | 81 | 1005.8 |
| 20260506061513 | 5 | 98 | 6.4 | 20.9 | 0.00 | 0.00 | 0.00 | 83 | 1006.2 |
| 20260506044559 | 4 | 155 | 4.8 | 19.3 | 0.00 | 0.00 | 0.00 | 83 | 1006.4 |
| 20260506043056 | 4 | 138 | 8.0 | 17.7 | 0.00 | 0.00 | 0.00 | 84 | 1006.5 |
| 20260506041602 | 3 | 360 | 0.0 | 6.4 | 0.00 | 0.00 | 0.00 | 83 | 1006.5 |
| 20260506040105 | 3 | 355 | 0.0 | 4.8 | 0.00 | 0.00 | 0.00 | 83 | 1006.7 |
| 20260506034553 | 3 | 313 | 1.6 | 6.4 | 0.00 | 0.00 | 0.00 | 83 | 1006.7 |
| 20260506033051 | 4 | 278 | 1.6 | 16.1 | 0.00 | 0.00 | 0.00 | 83 | 1006.8 |
| 20260506031550 | 4 | 125 | 4.8 | 14.5 | 0.00 | 0.00 | 0.00 | 83 | 1006.8 |
| 20260506030059 | 3 | 290 | 4.8 | 9.7 | 0.00 | 0.00 | 0.00 | 83 | 1007.1 |
| 20260506024554 | 3 | 186 | 1.6 | 4.8 | 0.00 | 0.00 | 0.00 | 82 | 1007.2 |
| 20260506023044 | 4 | 181 | 4.8 | 14.5 | 0.00 | 0.00 | 0.00 | 82 | 1007.5 |
| 20260506021543 | 3 | 113 | 1.6 | 3.2 | 0.00 | 0.00 | 0.00 | 81 | 1007.7 |
| 20260506020041 | 4 | 155 | 1.6 | 8.0 | 0.00 | 0.00 | 0.00 | 82 | 1007.6 |
| 20260506014553 | 3 | 42 | 1.6 | 6.4 | 0.00 | 0.00 | 0.00 | 82 | 1007.9 |
| 20260506013042 | 3 | 66 | 0.0 | 3.2 | 0.00 | 0.00 | 0.00 | 82 | 1008.0 |
| 20260506011540 | 3 | 91 | 1.6 | 4.8 | 0.00 | 0.00 | 0.00 | 82 | 1007.7 |
| 20260506010048 | 3 | 40 | 0.0 | 4.8 | 0.00 | 0.00 | 0.00 | 81 | 1007.6 |
| 20260506004546 | 5 | 40 | 8.0 | 17.7 | 0.00 | 0.00 | 0.00 | 78 | 1007.8 |
| 20260506003040 | 5 | 225 | 8.0 | 17.7 | 0.00 | 0.00 | 0.00 | 78 | 1008.0 |
| 20260506001535 | 5 | 178 | 3.2 | 11.3 | 0.00 | 0.00 | 0.00 | 78 | 1007.9 |
| 20260506000033 | 5 | 165 | 1.6 | 4.8 | 0.00 | 0.00 | 0.00 | 78 | 1007.9 |
| 20260505234527 | 5 | 360 | 3.2 | 8.0 | 0.00 | 0.00 | 0.00 | 77 | 1007.8 |
| 20260505233025 | 5 | 127 | 6.4 | 19.3 | 0.00 | 0.00 | 0.00 | 76 | 1008.0 |
| 20260505231527 | 5 | 111 | 4.8 | 14.5 | 0.00 | 0.00 | 0.00 | 76 | 1008.0 |
| 20260505230026 | 6 | 67 | 4.8 | 14.5 | 0.00 | 0.00 | 0.00 | 74 | 1008.1 |
| 20260505224519 | 6 | 59 | 4.8 | 14.5 | 0.00 | 0.00 | 0.00 | 73 | 1008.2 |
| 20260505223016 | 6 | 152 | 8.0 | 20.9 | 0.00 | 0.00 | 0.00 | 74 | 1008.2 |
| 20260505221518 | 6 | 185 | 6.4 | 25.7 | 0.00 | 0.00 | 0.00 | 71 | 1008.3 |
| 20260505220009 | 6 | 124 | 8.0 | 20.9 | 0.00 | 0.00 | 0.00 | 73 | 1008.3 |
| 20260505214512 | 6 | 171 | 4.8 | 12.9 | 0.00 | 0.00 | 0.00 | 72 | 1008.3 |
| 20260505213010 | 6 | 137 | 3.2 | 14.5 | 0.00 | 0.00 | 0.00 | 72 | 1008.3 |
| 20260505211508 | 6 | 165 | 3.2 | 11.3 | 0.00 | 0.00 | 0.00 | 70 | 1008.3 |
| 20260505210007 | 6 | 142 | 1.6 | 9.7 | 0.00 | 0.00 | 0.00 | 71 | 1008.2 |
| 20260505204506 | 6 | 140 | 8.0 | 17.7 | 0.00 | 0.00 | 0.00 | 72 | 1008.0 |
| 20260505203018 | 7 | 61 | 4.8 | 17.7 | 0.00 | 0.00 | 0.00 | 71 | 1008.0 |
| 20260505201503 | 7 | 148 | 3.2 | 11.3 | 0.00 | 0.00 | 0.00 | 68 | 1007.9 |
| 20260505200003 | 7 | 185 | 3.2 | 16.1 | 0.00 | 0.00 | 0.00 | 67 | 1007.7 |
| 20260505194502 | 8 | 200 | 11.3 | 19.3 | 0.00 | 0.00 | 0.00 | 64 | 1007.6 |
| 20260505193001 | 8 | 198 | 11.3 | 17.7 | 0.00 | 0.00 | 0.00 | 63 | 1007.5 |
| 20260505191607 | 8 | 188 | 9.7 | 17.7 | 0.00 | 0.00 | 0.00 | 62 | 1007.1 |
| 20260505184603 | 8 | 190 | 11.3 | 22.5 | 0.00 | 0.00 | 0.00 | 58 | 1006.9 |
| 20260505183058 | 8 | 225 | 8.0 | 27.4 | 0.00 | 0.00 | 0.00 | 59 | 1006.8 |
| 20260505181558 | 8 | 159 | 6.4 | 22.5 | 0.00 | 0.00 | 0.00 | 59 | 1006.8 |
| 20260505180057 | 9 | 139 | 6.4 | 16.1 | 0.00 | 0.00 | 0.00 | 58 | 1006.7 |
| 20260505174557 | 9 | 31 | 4.8 | 12.9 | 0.00 | 0.00 | 0.00 | 57 | 1006.6 |
| 20260505173059 | 9 | 71 | 4.8 | 16.1 | 0.00 | 0.00 | 0.00 | 57 | 1006.6 |
| 20260505171556 | 10 | 205 | 8.0 | 20.9 | 0.00 | 0.00 | 0.00 | 55 | 1006.4 |
| 20260505170055 | 10 | 292 | 9.7 | 32.2 | 0.00 | 0.00 | 0.00 | 55 | 1006.2 |
| 20260505164555 | 10 | 173 | 12.9 | 24.1 | 0.00 | 0.00 | 0.00 | 56 | 1006.3 |
| 20260505163054 | 10 | 180 | 9.7 | 24.1 | 0.00 | 0.00 | 0.00 | 53 | 1006.3 |
| 20260505161553 | 11 | 5 | 11.3 | 29.0 | 0.00 | 0.00 | 0.00 | 51 | 1006.0 |
| 20260505153102 | 10 | 175 | 9.7 | 25.7 | 0.00 | 0.00 | 0.00 | 55 | 1006.4 |
| 20260505151550 | 10 | 208 | 6.4 | 25.7 | 0.00 | 0.00 | 0.00 | 56 | 1006.2 |
| 20260505124541 | 9 | 256 | 6.4 | 19.3 | 0.00 | 0.00 | 0.00 | 62 | 1007.1 |
| 20260505123051 | 9 | 215 | 6.4 | 11.3 | 0.00 | 0.00 | 0.00 | 62 | 1007.2 |
| 20260505121540 | 10 | 184 | 4.8 | 9.7 | 0.00 | 0.00 | 0.00 | 58 | 1007.1 |
| 20260505120051 | 10 | 5 | 3.2 | 16.1 | 0.00 | 0.00 | 0.00 | 56 | 1007.0 |
| 20260505114539 | 10 | 325 | 8.0 | 19.3 | 0.00 | 0.00 | 0.00 | 56 | 1006.9 |
| 20260505113038 | 11 | 348 | 3.2 | 9.7 | 0.00 | 0.00 | 0.00 | 52 | 1006.9 |
| 20260505111538 | 11 | 323 | 3.2 | 8.0 | 0.00 | 0.00 | 0.00 | 53 | 1006.9 |
| 20260505101534 | 11 | 340 | 1.6 | 6.4 | 0.00 | 0.00 | 0.00 | 52 | 1007.3 |
| 20260505100032 | 11 | 345 | 1.6 | 12.9 | 0.00 | 0.00 | 0.00 | 53 | 1007.2 |
| 20260505094528 | 11 | 13 | 3.2 | 14.5 | 0.00 | 0.00 | 0.00 | 53 | 1007.1 |
| 20260505093027 | 11 | 338 | 3.2 | 8.0 | 0.00 | 0.00 | 0.00 | 50 | 1007.0 |